SCP
0 0 0 0 0 0 0 0 0 0 0 0 0 0 0 0 0 0 0 0 0 0 0 0 0 0 0 0 0 0 0 0 0 0 0 0 0 0 0 0 0 0 0
0 0 0 0 0 0 0 0 0 0 0 0 0 0 0 0 0 0 0 0 0 0 0 0 0 0 0 0 0 0 0 0 0 0 0 0 0 0 0 0 0 0 0
0 0 0 0 0 0 0 0 0 0 0 0 0 0 0 0 0 0 0 0 0 0 0 0 0 0 0 0 0 0 0 0 0 0 0 0 0 0 0 0 0 0 0
0 0 0 0 0 0 0 0 0 0 0 0 0 0 0 0 0 0 0 0 0 0 0 0 0 0 0 0 0 0 0 0 0 0 0 0 0 0 0 0 0 0 0
0 0 0 0 0 0 0 0 0 0 0 0 0 0 0 0 0 0 0 0 0 0 0 0 0 0 0 0 0 0 0 0 0 0 0 0 0 0 0 0 0 0 0
0 0 0 0 0 0 0 0 0 0 0 0 0 0 0 0 0 0 0 0 0 0 0 0 0 0 0 0 0 0 0 0 0 0 0 0 0 0 0 0 0 0 0
0 0 0 0 0 0 0 0 0 0 0 0 0 0 0 0 0 0 0 0 0 0 0 0 0 0 0 0 0 0 0 0 0 0 0 0 0 0 0 0 0 0 0
0 0 0 0 0 0 0 0 0 0 0 0 0 0 0 0 0 0 0 0 0 0 0 0 0 0 0 0 0 0 0 0 0 0 0 0 0 0 0 0 0 0 0
0 0 0 0 0 0 0 0 0 0 0 0 0 0 0 0 0 0 0 0 0 0 0 0 0 0 0 0 0 0 0 0 0 0 0 0 0 0 0 0 0 0 0
0 0 0 0 0 0 0 0 0 0 0 0 0 0 0 0 0 0 0 0 0 0 0 0 0 0 0 0 0 0 0 0 0 0 0 0 0 0 0 0 0 0 0
0 0 0 0 0 0 0 0 0 0 0 0 0 0 0 0 0 0 0 0 0 0 0 0 0 0 0 0 0 0 0 0 0 0 0 0 0 0 0 0 0 0 0
0 0 0 0 0 0 0 0 0 0 0 0 0 0 0 0 0 0 0 0 0 0 0 0 0 0 0 0 0 0 0 0 0 0 0 0 0 0 0 0 0 0 0
0 0 0 0 0 0 0 0 0 0 0 0 0 0 0 0 0 0 0 0 0 0 0 0 0 0 0 0 0 0 0 0 0 0 0 0 0 0 0 0 0 0 0
0 0 0 0 0 0 0 0 0 0 0 0 0 0 0 0 0 0 0 0 0 0 0 0 0 0 0 0 0 0 0 0 0 0 0 0 0 0 0 0 0 0 0
0 0 0 0 0 0 0 0 0 0 0 0 0 0 0 0 0 0 0 0 0 0 0 0 0 0 0 0 0 0 0 0 0 0 0 0 0 0 0 0 0 0 0
0 0 0 0 0 0 0 0 0 0 0 0 0 0 0 0 0 0 0 0 0 0 0 0 0 0 0 0 0 0 0 0 0 0 0 0 0 0 0 0 0 0 0
0 0 0 0 0 0 0 0 0 0 0 0 0 0 0 0 0 0 0 0 0 0 0 0 0 0 0 0 0 0 0 0 0 0 0 0 0 0 0 0 0 0 0
0 0 0 0 0 0 0 0 0 0 0 0 0 0 0 0 0 0 0 0 0 0 0 0 0 0 0 0 0 0 0 0 0 0 0 0 0 0 0 0 0 0 0
0 0 0 0 0 0 0 0 0 0 0 0 0 0 0 0 0 0 0 0 0 0 0 0 0 0 0 0 0 0 0 0 0 0 0 0 0 0 0 0 0 0 0
0 0 0 0 0 0 0 0 0 0 0 0 0 0 0 0 0 0 0 0 0 0 0 0 0 0 0 0 0 0 0 0 0 0 0 0 0 0 0 0 0 0 0
0 0 0 0 0 0 0 0 0 0 0 0 0 0 0 0 0 0 0 0 0 0 0 0 0 0 0 0 0 0 0 0 0 0 0 0 0 0 0 0 0 0 0
0 0 0 0 0 0 0 0 0 0 0 0 0 0 0 0 0 0 0 0 0 0 0 0 0 0 0 0 0 0 0 0 0 0 0 0 0 0 0 0 0 0 0
0 0 0 0 0 0 0 0 0 0 0 0 0 0 0 0 0 0 0 0 0 0 0 0 0 0 0 0 0 0 0 0 0 0 0 0 0 0 0 0 0 0 0
0 0 0 0 0 0 0 0 0 0 0 0 0 0 0 0 0 0 0 0 0 0 0 0 0 0 0 0 0 0 0 0 0 0 0 0 0 0 0 0 0 0 0
0 0 0 0 0 0 0 0 0 0 0 0 0 0 0 0 0 0 0 0 0 0 0 0 0 0 0 0 0 0 0 0 0 0 0 0 0 0 0 0 0 0 0
0 0 0 0 0 0 0 0 0 0 0 0 0 0 0 0 0 0 0 0 0 0 0 0 0 0 0 0 0 0 0 0 0 0 0 0 0 0 0 0 0 0 0
Wind_Speed
1 3 5 4 5 6 7 8 8 9 9 9 9 10 10 10 10 10 10 10 10 10 11 10 10 11 11 11 12 12 12 12 13 13 12 12 12 12 12 10 8 10 13
2 2 4 4 5 6 7 7 8 8 9 9 9 9 10 10 10 10 10 10 10 11 11 11 11 11 11 11 11 11 11 11 11 11 9 10 10 11 11 10 9 9 12
2 2 3 5 5 6 6 7 8 8 8 8 9 9 9 10 10 10 11 11 10 10 11 11 11 11 11 11 11 11 11 11 10 8 5 7 9 10 10 10 11 11 11
2 2 3 5 6 6 7 8 8 8 8 8 9 9 9 9 10 10 11 11 11 10 10 11 11 11 10 10 10 10 10 9 8 4 5 6 7 10 10 10 10 11 10
3 3 4 6 7 7 7 8 8 8 8 8 8 8 9 9 9 10 11 11 11 10 10 10 10 10 9 9 10 9 9 8 5 4 6 6 6 9 9 10 10 10 10
4 4 5 6 7 7 7 8 8 8 9 9 9 8 9 9 9 10 10 11 11 10 10 9 9 9 9 9 9 9 8 6 3 5 5 5 6 8 9 9 9 9 9
4 4 5 7 7 8 8 8 8 9 9 9 9 9 8 9 9 10 10 10 10 10 9 9 9 9 9 9 8 8 7 5 3 5 5 5 6 7 8 9 8 8 9
4 4 5 7 7 8 9 8 9 9 9 9 9 9 9 8 9 9 9 9 9 9 9 8 8 9 9 9 8 7 6 4 3 4 4 5 7 7 7 8 8 8 8
4 4 4 5 5 7 8 9 9 9 9 9 9 9 9 9 9 9 9 8 8 8 8 8 8 8 8 8 8 7 6 5 3 3 4 4 6 6 6 7 7 7 7
4 4 4 4 4 3 5 8 9 8 9 9 9 9 9 8 8 8 8 8 8 8 8 8 7 7 7 7 7 7 5 2 3 3 3 4 6 5 6 6 6 7 7
4 3 3 3 4 3 3 5 6 7 7 6 7 8 6 4 4 5 7 8 7 7 7 7 7 7 6 6 6 5 2 1 2 2 3 5 5 5 5 6 6 6 6
2 2 2 2 3 3 2 2 2 3 3 3 3 4 3 3 3 4 6 7 7 6 6 6 6 5 3 2 3 2 1 2 2 2 3 6 5 5 5 5 5 6 6
2 1 2 2 2 2 1 1 1 1 2 2 3 3 2 2 2 3 2 3 3 3 2 3 3 2 2 2 2 1 2 1 1 1 3 6 4 4 4 5 5 4 4
3 1 1 1 1 2 1 1 1 1 1 2 2 2 2 1 2 2 2 2 2 2 2 2 1 2 2 2 2 2 2 1 1 1 3 5 4 3 3 3 3 3 3
3 2 1 1 1 1 1 1 1 1 1 1 1 1 2 1 1 2 1 2 2 2 2 2 2 2 1 2 2 2 2 1 1 1 1 4 4 3 2 2 2 2 2
4 3 2 1 1 1 0 0 1 1 1 1 1 1 1 1 1 1 1 1 2 2 2 2 2 1 1 1 1 2 2 1 1 1 0 1 3 3 2 1 1 2 1
5 4 3 2 1 1 1 0 1 1 1 1 1 1 1 1 1 1 1 1 1 1 1 1 1 1 1 1 1 2 1 1 1 1 1 0 0 1 3 2 1 1 1
5 5 4 2 2 2 1 1 1 1 1 1 1 1 1 1 0 1 0 1 1 1 1 1 1 1 1 1 1 1 1 1 2 1 1 1 1 1 0 2 2 1 1
6 5 5 4 3 2 2 2 2 2 1 1 1 1 1 1 1 1 0 0 1 1 1 1 1 1 1 1 2 2 2 1 2 2 1 1 1 1 1 0 1 2 2
6 6 5 4 4 2 2 2 2 2 2 2 1 2 2 1 1 1 1 0 0 0 1 1 1 1 1 1 2 2 2 2 2 2 2 2 1 1 2 1 1 1 1
6 6 6 5 4 3 2 3 3 3 3 2 2 2 3 2 2 2 1 1 1 1 1 1 1 1 1 1 1 1 2 2 2 2 2 2 2 2 2 2 1 1 1
8 8 7 6 6 5 4 3 3 3 3 3 2 3 3 3 3 2 2 2 2 1 1 1 1 1 1 1 1 2 2 2 2 2 2 2 2 2 2 2 2 2 2
9 9 7 7 6 6 5 3 2 3 3 3 3 3 3 4 4 3 3 3 3 2 2 2 2 2 2 2 1 1 2 2 2 2 3 2 2 2 2 2 3 3 3
9 8 8 7 7 6 5 5 5 5 5 5 4 3 4 5 5 4 4 4 4 3 3 3 3 3 3 2 2 2 2 2 2 2 2 2 3 3 3 2 3 3 3
8 7 7 7 7 6 6 7 7 6 5 4 4 5 5 4 5 5 5 4 4 4 4 4 4 4 3 3 3 3 3 3 3 3 4 3 3 3 3 3 3 3 3
7 6 6 6 7 7 7 7 8 8 7 6 6 5 5 4 4 6 5 5 5 4 5 4 4 5 4 5 4 4 4 3 3 3 4 4 4 3 4 3 3 3 2
Wind_Direction
36 350 342 6 36 47 51 57 56 57 56 56 58 64 63 62 60 61 61 70 73 74 77 80 79 80 81 82 81 78 75 73 73 73 72 73 78 80 81 81 87 91 90
346 346 5 25 52 58 59 64 61 60 59 57 58 61 63 61 59 60 63 68 70 72 73 74 75 76 76 79 81 78 77 74 72 72 74 80 78 79 78 69 64 84 91
19 31 48 40 59 64 67 69 66 64 62 61 60 59 61 62 60 63 64 66 69 71 70 70 72 74 74 78 82 80 78 76 74 72 83 89 87 81 82 80 80 87 90
31 45 59 49 59 65 70 72 69 67 65 64 61 58 57 60 62 63 65 63 67 70 70 72 70 71 76 77 81 82 79 76 71 69 86 80 84 81 83 84 85 86 89
48 51 66 57 64 67 70 74 72 69 67 66 63 60 57 59 64 64 64 63 64 66 68 70 70 70 75 78 80 82 81 76 68 76 79 76 78 78 80 83 82 84 88
66 56 67 65 68 68 70 71 74 72 68 63 61 62 59 60 64 65 64 62 61 63 66 68 68 67 72 79 79 79 78 72 90 84 79 76 78 77 79 82 83 85 87
68 59 65 61 69 67 69 68 69 71 70 65 60 61 61 60 63 64 63 61 60 60 64 65 69 67 69 76 80 78 74 55 75 86 81 72 66 73 80 83 83 85 88
79 63 69 57 63 66 64 66 65 66 67 65 60 59 59 61 62 62 62 61 60 60 60 66 69 67 68 68 73 78 70 51 79 80 82 76 61 72 80 86 85 83 87
79 73 68 71 69 70 64 62 64 63 63 62 58 54 53 55 61 60 59 60 60 59 56 59 67 68 66 66 63 67 62 37 65 76 80 73 60 73 81 85 89 85 84
74 70 68 69 64 82 83 64 62 61 59 59 57 52 51 52 59 59 54 52 54 54 53 51 63 67 65 64 60 56 58 58 68 79 73 64 57 69 78 81 89 89 87
71 64 65 68 60 64 89 78 72 65 59 58 60 53 54 58 59 60 53 45 47 49 50 50 53 60 64 68 61 53 60 73 77 70 65 56 60 65 73 75 80 86 87
96 74 63 66 64 58 78 93 88 77 69 65 68 66 61 56 49 44 51 43 43 45 50 50 51 57 50 71 72 67 64 63 75 65 55 51 57 65 71 72 74 77 79
149 105 78 67 65 54 63 85 83 74 70 65 63 61 58 62 58 49 53 42 40 39 51 56 61 48 32 33 36 42 54 57 58 66 59 47 47 57 68 72 72 76 79
178 163 114 76 71 61 52 87 94 90 82 72 58 55 58 57 54 49 43 28 24 17 17 26 27 38 29 29 25 30 41 49 53 62 58 40 39 50 66 73 76 77 79
198 194 187 148 103 84 59 86 88 101 101 97 82 60 51 61 58 58 44 32 24 14 8 7 14 27 27 25 19 13 11 20 31 62 82 52 32 36 55 69 70 72 78
212 207 210 219 211 172 134 105 118 117 128 124 101 76 56 59 60 57 45 30 22 9 358 346 2 0 14 3 3 356 351 347 337 4 28 95 48 24 22 45 68 64 48
217 217 222 221 223 215 208 222 181 160 164 144 130 134 87 58 76 74 47 27 7 354 353 348 3 343 356 355 338 338 339 328 306 295 317 296 161 36 15 6 4 16 33
215 216 221 227 228 234 225 226 218 192 189 187 171 170 136 81 79 117 83 10 346 346 344 347 343 332 330 324 315 314 309 304 298 276 265 295 279 274 336 10 347 352 9
216 216 218 223 226 231 233 236 228 207 199 211 204 189 181 161 198 182 181 347 315 329 343 330 338 301 300 314 309 301 287 277 284 269 253 284 286 291 282 33 350 349 346
217 218 222 222 226 226 228 229 226 209 210 210 216 205 203 197 207 208 200 200 290 304 335 310 297 295 279 299 291 291 286 273 262 271 260 256 282 282 281 279 251 261 302
217 217 220 224 220 213 218 227 230 219 212 213 219 219 213 211 215 223 213 200 222 232 274 292 280 264 299 299 270 278 264 259 263 263 259 256 266 268 285 290 288 278 258
218 218 220 222 220 219 225 234 247 229 217 214 211 222 220 215 217 224 218 207 212 220 224 239 266 250 253 251 259 267 262 235 219 253 256 259 263 258 274 282 286 274 275
220 220 221 223 222 222 223 225 238 220 212 216 215 219 222 220 215 220 221 213 210 217 218 225 231 241 240 235 230 253 259 262 314 253 249 245 259 264 265 271 272 271 264
222 221 223 224 223 220 216 218 223 229 223 224 218 218 221 220 216 216 221 216 210 214 218 221 222 233 232 235 235 247 266 275 263 284 266 259 256 259 260 260 262 264 259
224 223 224 224 222 220 221 225 229 237 236 224 216 219 221 223 221 216 220 220 211 212 216 217 220 226 230 233 235 243 242 239 244 255 270 289 286 267 266 259 251 255 258
224 221 221 222 224 224 224 227 230 233 233 224 219 220 222 221 223 221 217 222 217 213 216 219 220 223 228 232 235 236 239 235 233 247 261 275 285 287 282 263 251 247 252